Regional Weather Roundup
Issued by NWS

Home | Current Version | Previous Version | Graphics & Text | Print | Product List | Glossary On
Versions: 1 2 3 4 5 6 7 8 9 10 11 12 13 14 15 16 17 18 19 20 21 22 23 24 25 26 27 28 29 30 31 32 33 34 35 36 37 38 39 40 41 42 43 44 45 46 47 48 49 50
906
ASUS43 KOAX 201602
RWRNE

WEATHER ROUNDUP FOR NEBRASKA
NATIONAL WEATHER SERVICE OMAHA NE
1100 AM CDT FRI APR 20 2018

NOTES: SATELLITE DATA IS BEING USED TO AUGMENT CLOUD COVER ABOVE
       12000 FEET.
       "FAIR" INDICATES FEW OR NO CLOUDS BELOW 12,000 FEET WITH NO
       SIGNIFICANT WEATHER AND/OR OBSTRUCTIONS TO VISIBILITY.


NEZ001>004-019>022-054>056-201700-
NEBRASKA PANHANDLE

CITY           SKY/WX    TMP DP  RH WIND       PRES   REMARKS
SCOTTSBLUFF    CLOUDY    45  32  60 SE22      30.07R
ALLIANCE       LGT RAIN  38  35  89 S24G31    30.09S WCI  27
CHADRON        CLOUDY    49  31  49 S12       30.11F
GORDON         FAIR      46  29  52 SE16G22   30.15S
KIMBALL        CLOUDY    43  29  59 SE23G33   30.04F
SIDNEY         LGT RAIN  37  31  78 SE16      30.08S WCI  28
$$

NEZ057>060-069>072-079>082-201700-
SOUTHWEST NEBRASKA

CITY           SKY/WX    TMP DP  RH WIND       PRES   REMARKS
NORTH PLATTE   CLOUDY    47  29  49 S14G25    30.22S
IMPERIAL       CLOUDY    45  29  53 SE26G37   30.14F
LEXINGTON      CLOUDY    47  32  55 SE18G28   30.26F
MCCOOK         CLOUDY    46  30  53 SE18G25   30.22F
OGALLALA       CLOUDY    44  30  56 SE8       30.18S
$$

NEZ005>010-023>029-035>040-094-201700-
NORTH CENTRAL NEBRASKA

CITY           SKY/WX    TMP DP  RH WIND       PRES   REMARKS
VALENTINE      CLOUDY    49  30  48 S16G26    30.24S
AINSWORTH      CLOUDY    46  32  57 S17G25    30.26S
BROKEN BOW     CLOUDY    47  32  56 SE16      30.27R
O`NEILL        CLOUDY    48  35  62 SE9       30.33S
ORD            CLOUDY    46  32  58 S12       30.32R
THEDFORD       CLOUDY    48  30  50 SE20G26   30.23F
$$

NEZ041-046>049-061>064-073>077-083>087-201700-
SOUTH CENTRAL NEBRASKA

CITY           SKY/WX    TMP DP  RH WIND       PRES   REMARKS
GRAND ISLAND   CLOUDY    49  33  54 SE13G21   30.34S
AURORA         CLOUDY    50  31  49 S15G22    30.35S
HASTINGS       CLOUDY    48  31  51 SE16G24   30.32S
HOLDREGE       CLOUDY    47  33  57 SE17G23   30.27S
KEARNEY        CLOUDY    47  32  56 SE15      30.30F
YORK             N/A     50  32  50 S16G24    30.36R
$$

NEZ011>018-030>034-042>045-201700-
NORTHEAST NEBRASKA

CITY           SKY/WX    TMP DP  RH WIND       PRES   REMARKS
NORFOLK        CLOUDY    48  33  56 SE12      30.36S
ALBION         CLOUDY    50  35  56 SE14      30.35F
BLAIR          CLOUDY    52  31  45 SE15      30.40F
COLUMBUS       CLOUDY    53  34  48 SE14      30.38F
FREMONT        PTSUNNY   54  32  43 SE13      30.40F
TEKAMAH        PTSUNNY   49  31  49 SE10      30.42F
WAYNE          CLOUDY    47  34  59 SE12      30.39F
$$

NEZ050>053-065>068-078-088>093-201700-
SOUTHEAST NEBRASKA

CITY           SKY/WX    TMP DP  RH WIND       PRES   REMARKS
LINCOLN        PTSUNNY   53  32  44 SE14G23   30.40S
OMAHA EPPLEY   CLOUDY    53  31  42 SE12      30.42S
BEATRICE       CLOUDY    54  33  43 SE13G22   30.38S
FALLS CITY     CLOUDY    54  29  38 SE18G28   30.40F
NEBRASKA CITY  PTSUNNY   52  32  47 SE9G18    30.41F
PLATTSMOUTH    CLOUDY    51  32  48 SE9       30.42S
$$

NEZ044-045-051>053-067-201700-
OMAHA AREA

CITY           SKY/WX    TMP DP  RH WIND       PRES   REMARKS
OMAHA EPPLEY   CLOUDY    53  31  42 SE12      30.42S
BLAIR          CLOUDY    52  31  45 SE15      30.40F
FREMONT        PTSUNNY   54  32  43 SE13      30.40F
MILLARD        CLOUDY    54  33  44 SE14G21   30.41F
OFFUTT AFB     CLOUDY    53  31  44 SE13      30.41S
PLATTSMOUTH    CLOUDY    51  32  48 SE9       30.42S
WAHOO          FAIR      53  28  37 SE17      30.40S
$$




USA.gov is the U.S. government's official web portal to all federal, state and local government web resources and services.